Weather History for Starkville, MS

Change the Weather History Date:

Tuesday, March 26, 2013

  Actual Average Record
Temperature  
Mean Temperature 37 °F -  
Max Temperature 46 °F 65 °F 78 °F (2012)
Min Temperature 28 °F 43 °F 26 °F (2014)
Degree Days  
Heating Degree Days 28    
Moisture  
Dew Point 27 °F    
Average Humidity 67    
Maximum Humidity 93    
Minimum Humidity 46    
Precipitation  
Precipitation 0.00 in - - ()
Sea Level Pressure  
Sea Level Pressure 30.32 in    
Wind  
Wind Speed 4 mph (NW)    
Max Wind Speed 12 mph    
Max Gust Speed 18 mph    
Visibility 10 miles    
Events      
Averages and records for this station are not official NWS values.
T = Trace of Precipitation, MM = Missing Value Source: NWS Daily Summary

Daily Weather History Graph

Daily Weather History Graph

Search for Another Location

Airport:

Trip Planner

Search our weather history database for the weather conditions in past years. The results will help you decide how hot, cold, wet, or windy it might be!

Date:

Astronomy

Mar. 26, 2013 Rise Set
Actual Time 6:50 AM CDT 7:11 PM CDT
Civil Twilight 6:25 AM CDT 7:36 PM CDT
Nautical Twilight 5:56 AM CDT 8:05 PM CDT
Astronomical Twilight 5:27 AM CDT 8:35 PM CDT
Moon 6:47 PM CDT (3/26) 6:06 AM CDT (3/26)
Length of Visible Light 13h 10m
Length of Day
12h 20m
Waxing Gibbous, 99% of the Moon is Illuminated
Mar 26
Waxing Gibbous
Mar 27
Full
Apr 2
Last Quarter
Apr 10
New
Apr 18
First Quarter

Hourly Weather History & Observations

Time (CDT) Temp. Windchill Dew Point Humidity Pressure Visibility Wind Dir Wind Speed Gust Speed Precip Events Conditions
12:15 AM 35.6 °F 32.8 °F 26.6 °F 70% 30.25 in 10.0 mi NW 3.5 mph - N/A   Overcast
12:35 AM 33.8 °F - 26.6 °F 75% 30.25 in 10.0 mi Calm Calm - N/A   Scattered Clouds
12:55 AM 33.8 °F 29.6 °F 26.6 °F 75% 30.25 in 10.0 mi NW 4.6 mph - N/A   Clear
1:15 AM 33.8 °F 30.8 °F 24.8 °F 70% 30.25 in 10.0 mi WNW 3.5 mph - N/A   Scattered Clouds
1:35 AM 33.8 °F 28.6 °F 24.8 °F 70% 30.25 in 10.0 mi WNW 5.8 mph - N/A   Mostly Cloudy
1:55 AM 33.8 °F - 24.8 °F 70% 30.25 in 10.0 mi Calm Calm - N/A   Scattered Clouds
2:15 AM 33.8 °F 30.8 °F 24.8 °F 70% 30.24 in 10.0 mi WNW 3.5 mph - N/A   Clear
2:35 AM 32.0 °F 28.7 °F 24.8 °F 75% 30.24 in 10.0 mi West 3.5 mph - N/A   Clear
2:55 AM 32.0 °F - 24.8 °F 75% 30.24 in 10.0 mi Calm Calm - N/A   Scattered Clouds
3:15 AM 32.0 °F - 24.8 °F 75% 30.24 in 10.0 mi Calm Calm - N/A   Scattered Clouds
3:35 AM 32.0 °F - 24.8 °F 75% 30.24 in 10.0 mi Calm Calm - N/A   Clear
3:55 AM 30.2 °F - 26.6 °F 86% 30.24 in 10.0 mi Calm Calm - N/A   Clear
4:15 AM 30.2 °F - 26.6 °F 86% 30.24 in 10.0 mi Calm Calm - N/A   Clear
4:55 AM 30.2 °F - 26.6 °F 86% 30.25 in 10.0 mi Calm Calm - N/A   Clear
5:15 AM 30.2 °F - 26.6 °F 86% 30.25 in 10.0 mi Calm Calm - N/A   Clear
5:35 AM 28.4 °F - 26.6 °F 93% 30.25 in 10.0 mi Calm Calm - N/A   Clear
5:55 AM 30.2 °F 26.7 °F 26.6 °F 86% 30.26 in 10.0 mi West 3.5 mph - N/A   Clear
6:15 AM 32.0 °F 28.7 °F 24.8 °F 75% 30.27 in 10.0 mi WNW 3.5 mph - N/A   Clear
6:35 AM 32.0 °F 28.7 °F 24.8 °F 75% 30.27 in 10.0 mi WNW 3.5 mph - N/A   Clear
7:15 AM 30.2 °F - 23.0 °F 75% 30.29 in 10.0 mi Calm Calm - N/A   Clear
7:35 AM 32.0 °F 26.4 °F 23.0 °F 69% 30.30 in 10.0 mi WNW 5.8 mph - N/A   Clear
7:55 AM 32.0 °F 27.5 °F 24.8 °F 75% 30.31 in 10.0 mi WNW 4.6 mph - N/A   Clear
8:15 AM 32.0 °F 24.8 °F 23.0 °F 69% 30.32 in 10.0 mi WNW 8.1 mph - N/A   Clear
8:35 AM 33.8 °F 27.0 °F 24.8 °F 70% 30.32 in 10.0 mi NW 8.1 mph 16.1 mph N/A   Clear
8:55 AM 35.6 °F 29.9 °F 26.6 °F 70% 30.33 in 10.0 mi NW 6.9 mph - N/A   Clear
9:15 AM 35.6 °F 29.9 °F 24.8 °F 65% 30.34 in 10.0 mi NW 6.9 mph - N/A   Clear
9:35 AM 35.6 °F 29.2 °F 26.6 °F 70% 30.34 in 10.0 mi NW 8.1 mph - N/A   Scattered Clouds
9:55 AM 37.4 °F 32.1 °F 26.6 °F 65% 30.34 in 10.0 mi NNW 6.9 mph - N/A   Scattered Clouds
10:15 AM 37.4 °F 30.3 °F 26.6 °F 65% 30.35 in 10.0 mi NW 10.4 mph - N/A   Mostly Cloudy
10:35 AM 37.4 °F 31.4 °F 26.6 °F 65% 30.36 in 10.0 mi NW 8.1 mph - N/A   Mostly Cloudy
10:55 AM 37.4 °F 31.4 °F 26.6 °F 65% 30.36 in 10.0 mi NNW 8.1 mph - N/A   Mostly Cloudy
11:15 AM 41.0 °F 34.3 °F 26.6 °F 57% 30.35 in 10.0 mi NW 11.5 mph 17.3 mph N/A   Mostly Cloudy
11:35 AM 42.8 °F 38.0 °F 26.6 °F 53% 30.35 in 10.0 mi NNW 8.1 mph - N/A   Scattered Clouds
11:55 AM 41.0 °F 36.4 °F 26.6 °F 57% 30.36 in 10.0 mi NNW 6.9 mph 18.4 mph N/A   Scattered Clouds
12:15 PM 41.0 °F 34.7 °F 26.6 °F 57% 30.36 in 10.0 mi NNW 10.4 mph - N/A   Mostly Cloudy
12:35 PM 42.8 °F 37.5 °F 28.4 °F 57% 30.35 in 10.0 mi North 9.2 mph 16.1 mph N/A   Mostly Cloudy
12:55 PM 42.8 °F 37.5 °F 26.6 °F 53% 30.35 in 10.0 mi NNW 9.2 mph - N/A   Mostly Cloudy
1:15 PM 42.8 °F 39.3 °F 26.6 °F 53% 30.35 in 10.0 mi NNW 5.8 mph 17.3 mph N/A   Mostly Cloudy
1:35 PM 42.8 °F 37.5 °F 26.6 °F 53% 30.35 in 10.0 mi North 9.2 mph - N/A   Mostly Cloudy
1:55 PM 44.6 °F 39.7 °F 26.6 °F 49% 30.35 in 10.0 mi NNW 9.2 mph 16.1 mph N/A   Overcast
2:15 PM 42.8 °F 38.0 °F 26.6 °F 53% 30.34 in 10.0 mi NNW 8.1 mph 18.4 mph N/A   Mostly Cloudy
2:35 PM 44.6 °F 40.2 °F 26.6 °F 49% 30.34 in 10.0 mi North 8.1 mph - N/A   Overcast
2:55 PM 44.6 °F 40.2 °F 26.6 °F 49% 30.34 in 10.0 mi NNW 8.1 mph - N/A   Mostly Cloudy
3:15 PM 44.6 °F 40.7 °F 26.6 °F 49% 30.34 in 10.0 mi NNW 6.9 mph - N/A   Mostly Cloudy
3:35 PM 44.6 °F 40.2 °F 26.6 °F 49% 30.33 in 10.0 mi NNW 8.1 mph - N/A   Mostly Cloudy
3:55 PM 44.6 °F 42.2 °F 26.6 °F 49% 30.33 in 10.0 mi NNW 4.6 mph - N/A   Scattered Clouds
4:15 PM 44.6 °F 41.4 °F 26.6 °F 49% 30.33 in 10.0 mi North 5.8 mph 9.2 mph N/A   Mostly Cloudy
4:35 PM 44.6 °F 40.7 °F 26.6 °F 49% 30.32 in 10.0 mi WNW 6.9 mph - N/A   Mostly Cloudy
4:55 PM 44.6 °F 41.4 °F 26.6 °F 49% 30.32 in 10.0 mi NNW 5.8 mph - N/A   Mostly Cloudy
5:15 PM 46.4 °F 42.9 °F 26.6 °F 46% 30.32 in 10.0 mi North 6.9 mph - N/A   Mostly Cloudy
5:35 PM 46.4 °F 42.9 °F 26.6 °F 46% 30.32 in 10.0 mi North 6.9 mph - N/A   Overcast
5:55 PM 44.6 °F 42.2 °F 26.6 °F 49% 30.32 in 10.0 mi NNE 4.6 mph - N/A   Overcast
6:15 PM 44.6 °F 40.7 °F 26.6 °F 49% 30.32 in 10.0 mi North 6.9 mph - N/A   Scattered Clouds
6:35 PM 44.6 °F - 26.6 °F 49% 30.33 in 10.0 mi Calm Calm - N/A   Scattered Clouds
6:55 PM 42.8 °F - 26.6 °F 53% 30.33 in 10.0 mi Calm Calm - N/A   Scattered Clouds
7:15 PM 42.8 °F - 28.4 °F 57% 30.34 in 10.0 mi Calm Calm - N/A   Mostly Cloudy
7:35 PM 41.0 °F - 30.2 °F 65% 30.35 in 10.0 mi Calm Calm - N/A   Mostly Cloudy
7:55 PM 39.2 °F - 32.0 °F 75% 30.35 in 10.0 mi Calm Calm - N/A   Mostly Cloudy
8:15 PM 37.4 °F - 32.0 °F 81% 30.36 in 10.0 mi Calm Calm - N/A   Scattered Clouds
9:15 PM 37.4 °F - 30.2 °F 75% 30.37 in 10.0 mi Calm Calm - N/A   Mostly Cloudy
9:35 PM 37.4 °F - 30.2 °F 75% 30.37 in 10.0 mi Calm Calm - N/A   Scattered Clouds
10:15 PM 33.8 °F - 30.2 °F 87% 30.38 in 10.0 mi Calm Calm - N/A   Clear
10:35 PM 33.8 °F - 30.2 °F 87% 30.38 in 10.0 mi Calm Calm - N/A   Clear
10:55 PM 32.0 °F - 30.2 °F 93% 30.38 in 10.0 mi Calm Calm - N/A   Clear
11:15 PM 32.0 °F - 30.2 °F 93% 30.39 in 10.0 mi Calm Calm - N/A   Clear
11:35 PM 32.0 °F - 30.2 °F 93% 30.39 in 10.0 mi Calm Calm - N/A   Clear
11:55 PM 32.0 °F - 30.2 °F 93% 30.39 in 10.0 mi Calm Calm - N/A   Clear